Location: Days
(41.3591°N, 106.7339°W)
Time: 14:24:24
(UTC+00:00)

O/OREOS (USA 219) - Pass Details

Date: 01 July 2022
Orbit: 621 x 646 km, 72.0° (Epoch: 22 May)

Event Time Altitude Azimuth Distance (km) Brightness Sun altitude
Rises 08:54:17 0° 320° (NW) 2,963 ? -21.2°
Reaches altitude 10° 08:57:15 10° 300° (WNW) 2,049 ? -21.0°
Enters shadow 08:59:02 16° 278° (W) 1,708 ? -20.8°
